Regional Weather Roundup
Issued by NWS

Home | Current Version | Previous Version | Text Only | Print | Product List | Glossary Off
Versions: 1 2 3 4 5 6 7 8 9 10 11 12 13 14 15 16 17 18 19 20 21 22 23 24 25 26 27 28 29 30 31 32 33 34 35 36 37 38 39 40 41 42 43 44 45 46 47 48 49 50

000
ASUS43 KLOT 210903
RWRIL

ILLINOIS REGIONAL WEATHER ROUNDUP
NATIONAL WEATHER SERVICE CHICAGO/ROMEOVILLE IL
300 AM CST SUN JAN 21 2018

NOTE: "FAIR" INDICATES FEW OR NO CLOUDS BELOW 12,000 FEET WITH NO
SIGNIFICANT WEATHER AND/OR OBSTRUCTIONS TO VISIBILITY.

* THESE STATIONS ARE NOT UNDER NWS QUALITY CONTROL. THEY ALSO MAY NOT
  REPORT WEATHER SUCH AS PRECIPITATION OR FOG.

ILZ001-002-007-009-015-016-024-211000-
NORTHWEST ILLINOIS

CITY           SKY/WX    TMP DP  RH WIND       PRES   REMARKS
MOLINE         CLOUDY    40  37  89 CALM      29.94R
STERLING*      CLOUDY    36  35  96 E3        29.96F FOG
SAVANNA*       CLOUDY    36  35  96 E3        29.96S FOG
$$

ILZ003-004-008-010-011-017-018-211000-
NORTH CENTRAL ILLINOIS

CITY           SKY/WX    TMP DP  RH WIND       PRES   REMARKS
ROCKFORD       CLOUDY    35  33  92 CALM      29.99R FOG
FREEPORT*      CLOUDY    34  34 100 CALM      29.98S FOG
DE KALB*       CLOUDY    35  35  99 S5        29.98S FOG     WCI  31
PERU*          CLOUDY    39  36  91 S6        29.98R WCI  34
$$

ILZ005-006-012>014-019>023-211000-
NORTHEAST ILLINOIS

CITY           SKY/WX    TMP DP  RH WIND       PRES   REMARKS
CHICAGO-OHARE  CLOUDY    38  35  89 SE5       29.98F WCI  34
CHICAGO-MIDWAY CLOUDY    41  38  89 S5        29.99F
AURORA         CLOUDY    37  35  92 CALM      29.98S
LANSING*       CLOUDY    38  38  98 SE3       30.00F
JOLIET*        CLOUDY    40  39  95 SE3       29.99F
WAUKEGAN       CLOUDY    36  34  92 CALM      29.98F FOG
DUPAGE AIRPORT CLOUDY    37  36  96 S6        29.97F FOG     WCI  32
KANKAKEE*      CLOUDY   N/A N/A N/A SE3       30.02F
WHEELING       CLOUDY    40  37  89 E3        29.99F
MORRIS*        CLOUDY    38  37  93 SE7       29.97F WCI  33
NORTHERLY ISL    N/A     41  36  82 S6          N/A
$$

LMZ740>746-211000-
SOUTHERN LAKE MICHIGAN

STATION/POSITION SKY/WX   TEMP    WIND        PRES    VSBY  WAVE
                          AIR SEA DIR/SP/G                  HT/PER
                          (F)     (DEG/KT/KT) (MB)    (MI)  (FT/S)
HARRISON CRIB              40     190/  9/ 10   N/A
BURNHAM HARBOR             41     190/  6/  7   N/A
CALUMET HARBOR             39     160/  5/  6 1015.4F
BURNS HARBOR               39     180/  7/ 11 1016.9S
MICHIGAN CITY              39     170/  8/ 10   N/A
$$

ILZ025>027-034>036-040-047-049-050-058-095>099-211000-
WEST-CENTRAL ILLINOIS

CITY           SKY/WX    TMP DP  RH WIND       PRES   REMARKS
QUINCY         CLOUDY    42  39  89 S6        29.91F
MACOMB*        CLOUDY    39  37  93 SE7       29.95F WCI  34
JACKSONVILLE*  CLEAR     28  27  96 SE5       29.95F FOG     WCI  23
PITTSFIELD*    PTCLDY    35  35  99 CALM      29.94F FOG
$$

ILZ028>032-037-038-041>044-048-051>054-059>061-211000-
CENTRAL ILLINOIS

CITY           SKY/WX    TMP DP  RH WIND       PRES   REMARKS
BLOOMINGTON    LGT RAIN  38  37  97 S9        29.99F VSB 1/4 WCI  31
DECATUR        CLOUDY    43  43 100 S6        29.99S
PEORIA         CLOUDY    40  37  89 SE6       29.96F
LACON*         CLOUDY    40  38  93 S5        29.96F
LINCOLN*       FOG       38  38 100 CALM      29.98F VSB 3/4
SPRINGFIELD    CLOUDY    44  42  93 S5        29.97S
TAYLORVILLE    CLOUDY    44  43  96 S7        29.98F
$$

ILZ033-039-045-046-055>057-062-063-211000-
EAST-CENTRAL ILLINOIS

CITY           SKY/WX    TMP DP  RH WIND       PRES   REMARKS
CHAMPAIGN      FOG       38  38 100 SE5       30.00S VSB 1/4 WCI  34
DANVILLE*      FOG       37  37  99 SE6       29.99F VSB 1/4 WCI  33
RANTOUL*       FOG       38  38 100 E3        30.00F VSB 1/4
MATTOON        CLOUDY    41  41 100 S7        30.00F FOG
$$

ILZ079-100>102-211000-
SOUTHWEST ILLINOIS

CITY           SKY/WX    TMP DP  RH WIND       PRES   REMARKS
ALTON          CLOUDY    40  40 100 SE3       29.98S FOG
BELLEVILLE     FOG       36  35  93 CALM      29.98S VSB 3/8
CAHOKIA*       PTCLDY    41  40  96 SE5       29.97S FOG
SPARTA*        MOCLDY    48  48 100 S8        30.01F
$$

ILZ064>066-069>071-074>076-080>082-084>086-088>090-092>094-211000-
SOUTH-CENTRAL ILLINOIS

CITY           SKY/WX    TMP DP  RH WIND       PRES   REMARKS
CARBONDALE     CLOUDY    52  50  93 SW18G26   30.02R
CAIRO*         CLOUDY    48  45  87 S7        30.05S
EFFINGHAM*     CLOUDY    42  42 100 SE3       30.04S
MARION         CLOUDY    51  50  99 S13G18    30.04R
MT. VERNON     CLOUDY    45  45 100 CALM      30.03R
CENTRALIA*     CLOUDY    46  45  99 CALM      30.01S FOG
SALEM*         CLOUDY    48  46  92 S6        30.01F FOG
$$

ILZ067-068-072-073-078-083-087-091-211000-
SOUTHEAST ILLINOIS

CITY           SKY/WX    TMP DP  RH WIND       PRES   REMARKS
LAWRENCEVILLE  CLOUDY    40  39  97 SE6       30.05S
FLORA*         CLOUDY    42  40  94 SE3       30.04R
FAIRFIELD*     CLOUDY    46  44  96 CALM      30.03R
HARRISBURG*    CLOUDY    51  47  84 SW7       30.04S
ROBINSON*      CLOUDY    42  40  94 S3        30.05S
CARMI*         CLOUDY    40  38  95 CALM      30.04R
$$

ABBREVIATIONS USED IN REMARKS
   TC - TEMPERATURE IN CELSIUS
  WCI - WIND CHILL INDEX
   HX - HEAT INDEX
  VSB - VISIBILITY
$$





USA.gov is the U.S. government's official web portal to all federal, state and local government web resources and services.